Weather History for KFFX - March, 2013

Change the Weather History Date:

Sunday, March 10, 2013

  Actual Average (KMKG) Record (KMKG)
Temperature  
Mean Temperature 40 °F 33 °F  
Max Temperature 45 °F 41 °F 64 °F (1902)
Min Temperature 37 °F 25 °F 3 °F (1950)
Degree Days  
Heating Degree Days 24 32  
Month to date heating degree days 335  
Since 1 July heating degree days 5067  
Cooling Degree Days 0 0  
Month to date cooling degree days 0  
Year to date cooling degree days 0  
Moisture  
Dew Point 38 °F    
Average Humidity 91    
Maximum Humidity 100    
Minimum Humidity 65    
Precipitation  
Precipitation 0.00 in 0.07 in 0.70 in (1901)
Month to date precipitation 0.72  
Year to date precipitation 4.58  
Snow  
Snow 0.00 in 0.30 in 6.40 in (1993)
Month to date snowfall 4.1  
Since 1 July snowfall 86.5  
Snow Depth -    
Sea Level Pressure  
Sea Level Pressure 29.81 in    
Wind  
Wind Speed 5 mph (East)    
Max Wind Speed 13 mph    
Max Gust Speed 16 mph    
Visibility 5 miles    
Events Fog , Rain    
T = Trace of Precipitation, MM = Missing Value Source: NWS Daily Summary

Daily Weather History Graph

Daily Weather History Graph

Search for Another Location

Airport or City:

Trip Planner

Search our weather history database for the weather conditions in past years. The results will help you decide how hot, cold, wet, or windy it might be!

Date:

Astronomy

Mar. 10, 2013 Rise Set
Actual Time 8:04 AM EDT 7:44 PM EDT
Civil Twilight 7:36 AM EDT 8:12 PM EDT
Nautical Twilight 7:02 AM EDT 8:46 PM EDT
Astronomical Twilight 6:29 AM EDT 9:19 PM EDT
Moon 7:05 AM EDT (3/10) 6:51 PM EDT (3/10)
Length of Visible Light 12h 36m
Length of Day
11h 40m
Waning Crescent, 2% of the Moon is Illuminated
Mar 10
Waning Crescent
Mar 11
New
Mar 19
First Quarter
Mar 27
Full
Apr 3
Last Quarter

Hourly Weather History & Observations

Time (EDT) Temp. Windchill Dew Point Humidity Pressure Visibility Wind Dir Wind Speed Gust Speed Precip Events Conditions
12:14 AM 38.3 °F 31.9 °F 31.1 °F 75% 29.92 in 10.0 mi ESE 9.2 mph - N/A   Scattered Clouds
12:35 AM 38.7 °F 34.3 °F 31.1 °F 74% 29.91 in 10.0 mi ESE 5.8 mph - N/A   Mostly Cloudy
12:55 AM 38.7 °F 33.6 °F 31.1 °F 74% 29.91 in 10.0 mi East 6.9 mph - N/A   Overcast
1:15 AM 40.3 °F 35.5 °F 30.7 °F 69% 29.90 in 10.0 mi ESE 6.9 mph - N/A   Overcast
1:34 AM 40.1 °F 35.3 °F 30.7 °F 69% 29.89 in 10.0 mi ESE 6.9 mph - N/A   Overcast
1:55 AM 41.0 °F 36.4 °F 30.6 °F 66% 29.89 in 10.0 mi ESE 6.9 mph - N/A   Overcast
3:14 AM 41.2 °F 36.6 °F 30.4 °F 65% 29.88 in 10.0 mi ESE 6.9 mph - N/A   Overcast
3:35 AM 41.0 °F 36.4 °F 30.2 °F 65% 29.87 in 10.0 mi East 6.9 mph - N/A   Overcast
3:55 AM 40.1 °F 36.1 °F 30.6 °F 69% 29.86 in 10.0 mi East 5.8 mph - N/A   Overcast
4:14 AM 40.5 °F 37.3 °F 30.6 °F 68% 29.86 in 10.0 mi ESE 4.6 mph - N/A   Overcast
4:35 AM 39.7 °F 36.5 °F 30.6 °F 70% 29.85 in 10.0 mi East 4.6 mph - N/A   Overcast
4:54 AM 39.4 °F 36.1 °F 30.6 °F 71% 29.85 in 10.0 mi East 4.6 mph - N/A   Overcast
5:15 AM 38.7 °F 34.3 °F 30.7 °F 73% 29.85 in 10.0 mi East 5.8 mph - N/A   Overcast
5:35 AM 39.2 °F - 30.7 °F 72% 29.84 in 10.0 mi Calm Calm - N/A   Mostly Cloudy
5:54 AM 40.6 °F 37.5 °F 30.7 °F 68% 29.84 in 10.0 mi ESE 4.6 mph - N/A   Drizzle
6:14 AM 40.3 °F 37.1 °F 32.4 °F 73% 29.85 in 10.0 mi SE 4.6 mph - N/A Rain Light Rain
6:34 AM 40.1 °F 38.0 °F 33.1 °F 76% 29.85 in 10.0 mi SE 3.5 mph - N/A Rain Light Rain
6:55 AM 39.6 °F 37.4 °F 34.3 °F 82% 29.83 in 10.0 mi ESE 3.5 mph - N/A Rain Light Rain
7:15 AM 37.4 °F - 34.0 °F 87% 29.84 in 10.0 mi Calm Calm - N/A Rain Light Rain
7:34 AM 37.8 °F 35.3 °F 35.8 °F 93% 29.84 in 7.0 mi ESE 3.5 mph - N/A Rain Light Rain
8:34 AM 40.1 °F 36.9 °F 39.7 °F 99% 29.85 in 3.0 mi SE 4.6 mph - N/A Rain Light Rain
8:55 AM 39.7 °F 36.5 °F 39.4 °F 99% 29.85 in 2.5 mi SE 4.6 mph - N/A Rain Rain
9:14 AM 39.6 °F 37.4 °F 39.2 °F 99% 29.84 in 3.0 mi SE 3.5 mph - N/A Rain Light Rain
9:35 AM 39.6 °F - 39.4 °F 99% 29.83 in 3.0 mi Calm Calm - N/A   Overcast
9:55 AM 39.4 °F 37.2 °F 39.2 °F 99% 29.83 in 1.8 mi ESE 3.5 mph - N/A Rain Rain
10:14 AM 39.2 °F 35.9 °F 39.2 °F 100% 29.82 in 1.2 mi ESE 4.6 mph - N/A Rain Rain
10:35 AM 40.1 °F 36.9 °F 40.1 °F 100% 29.83 in 1.8 mi SE 4.6 mph - N/A Rain Rain
10:55 AM 40.3 °F 38.2 °F 40.1 °F 99% 29.83 in 1.2 mi SE 3.5 mph - N/A   Drizzle
11:14 AM 40.6 °F - 40.5 °F 99% 29.83 in 0.8 mi Calm Calm - N/A   Drizzle
11:35 AM 41.0 °F 39.0 °F 41.0 °F 100% 29.84 in 0.5 mi ESE 3.5 mph - N/A Rain Light Rain
11:54 AM 41.9 °F 40.0 °F 41.9 °F 100% 29.83 in 2.5 mi SE 3.5 mph - N/A   Drizzle
12:15 PM 42.1 °F 40.2 °F 41.9 °F 99% 29.84 in 2.5 mi SE 3.5 mph - N/A   Heavy Drizzle
12:34 PM 41.9 °F - 41.7 °F 99% 29.85 in 2.5 mi North - - N/A Rain Rain
12:55 PM 42.1 °F 39.2 °F 41.9 °F 99% 29.85 in 1.8 mi SE 4.6 mph - N/A Rain Light Rain
1:15 PM 42.3 °F - 42.1 °F 99% 29.85 in 1.8 mi Calm Calm - N/A   Drizzle
1:34 PM 41.7 °F 39.8 °F 41.5 °F 99% 29.85 in 1.0 mi SSE 3.5 mph - N/A   Heavy Drizzle
1:55 PM 42.4 °F - 42.3 °F 99% 29.83 in 1.5 mi Calm Calm - N/A   Drizzle
2:14 PM 42.1 °F - 41.9 °F 99% 29.83 in 1.0 mi Calm Calm - N/A Rain Light Rain
2:35 PM 42.6 °F - 42.4 °F 99% 29.83 in 1.2 mi North - - N/A   Overcast
2:54 PM 41.5 °F 38.6 °F 41.4 °F 99% 29.81 in 0.2 mi NE 4.6 mph - N/A Fog Fog
3:14 PM 42.1 °F 40.2 °F 41.9 °F 99% 29.83 in 0.2 mi ESE 3.5 mph - N/A Rain Light Rain
3:35 PM 42.4 °F 38.8 °F 42.3 °F 99% 29.84 in 1.8 mi ESE 5.8 mph - N/A   Overcast
3:54 PM 41.9 °F 38.2 °F 41.7 °F 99% 29.81 in 1.8 mi East 5.8 mph - N/A Rain Light Rain
4:15 PM 42.1 °F 39.2 °F 41.9 °F 99% 29.83 in 2.0 mi SE 4.6 mph - N/A Rain Light Rain
4:34 PM 40.6 °F 38.6 °F 40.5 °F 99% 29.81 in 0.8 mi ENE 3.5 mph - N/A Rain Rain
4:54 PM 41.0 °F 37.1 °F 40.8 °F 99% 29.78 in 0.8 mi NE 5.8 mph - N/A   Light Drizzle
5:15 PM 41.4 °F 38.4 °F 41.2 °F 99% 29.80 in 0.2 mi East 4.6 mph - N/A Fog Fog
5:34 PM 41.7 °F 38.0 °F 41.4 °F 99% 29.79 in 1.2 mi East 5.8 mph - N/A   Overcast
5:55 PM 41.4 °F 36.8 °F 41.2 °F 99% 29.81 in 1.2 mi ESE 6.9 mph - N/A   Overcast
6:15 PM 40.6 °F 35.4 °F 40.5 °F 99% 29.77 in 0.5 mi NE 8.1 mph - N/A Fog Fog
6:34 PM 41.5 °F 38.6 °F 41.4 °F 99% 29.77 in 1.0 mi ENE 4.6 mph - N/A   Overcast
6:55 PM 40.6 °F - 40.6 °F 100% 29.79 in 0.8 mi Calm Calm - N/A Rain Heavy Rain
7:14 PM 39.0 °F 35.7 °F 39.0 °F 100% 29.80 in 0.2 mi West 4.6 mph - N/A Rain Light Rain
7:35 PM 41.4 °F 36.2 °F 41.2 °F 99% 29.78 in 0.2 mi East 8.1 mph - N/A Rain Light Rain
7:54 PM 41.9 °F 39.0 °F 41.7 °F 99% 29.77 in 2.0 mi ENE 4.6 mph - N/A Rain Light Rain
8:15 PM 40.5 °F 37.3 °F 40.5 °F 100% 29.77 in 2.5 mi NE 4.6 mph - N/A Rain Light Rain
8:34 PM 41.9 °F 39.0 °F 41.9 °F 100% 29.78 in 2.5 mi ENE 4.6 mph - N/A Rain Rain
8:55 PM 40.3 °F 33.9 °F 40.3 °F 100% 29.75 in 3.0 mi ENE 10.4 mph - N/A Rain Light Rain
9:14 PM 41.0 °F 35.8 °F 41.0 °F 100% 29.74 in 5.0 mi ENE 8.1 mph - N/A Rain Light Rain
9:35 PM 42.6 °F 39.0 °F 42.3 °F 99% 29.73 in 5.0 mi ENE 5.8 mph - N/A Rain Light Rain
9:54 PM 42.6 °F 38.4 °F 42.1 °F 98% 29.73 in 7.0 mi ENE 6.9 mph - N/A Rain Rain
10:15 PM 43.2 °F 39.0 °F 42.4 °F 97% 29.71 in 7.0 mi East 6.9 mph - N/A   Overcast
10:34 PM 43.3 °F 38.1 °F 42.1 °F 95% 29.71 in 7.0 mi East 9.2 mph - N/A   Overcast
10:55 PM 43.7 °F 39.1 °F 41.9 °F 93% 29.70 in 10.0 mi East 8.1 mph - N/A   Overcast
11:14 PM 43.5 °F 38.3 °F 41.9 °F 94% 29.69 in 10.0 mi East 9.2 mph - N/A   Overcast
11:35 PM 43.5 °F 38.9 °F 41.9 °F 94% 29.67 in 10.0 mi East 8.1 mph - N/A   Overcast
11:54 PM 43.3 °F 39.9 °F 41.4 °F 93% 29.67 in 10.0 mi East 5.8 mph - N/A   Overcast
12:15 AM 44.1 °F 39.5 °F 42.1 °F 93% 29.66 in 10.0 mi East 8.1 mph - N/A   Overcast
12:35 AM 44.6 °F 42.2 °F 42.3 °F 91% 29.67 in 10.0 mi SE 4.6 mph - N/A   Light Drizzle
12:54 AM 45.7 °F 39.8 °F 42.8 °F 90% 29.67 in 10.0 mi SE 12.7 mph 16.1 mph N/A Rain Light Rain